GAOFEN-13 02

Last updated on Mon Jun 22 2026 00:03:07 GMT+0000 (Coordinated Universal Time)

1 55912U 23036A 26172.52477597 -.00000220 00000+0 00000+0 0 9993 2 55912 1.0212 1.7574 0003996 337.6625 267.4934 1.00269978 12137
UTC large
Height (km)
Speed (km/s)
/
Latitude / Longitude
Inclination (degrees)
Orbital Period (minutes)
Azimuth
Elevation
Range (km)
Doppler Factor

Next 0 passes for location: London (51.5072 / 0.1276)

No passes found over London.
GAOFEN-13 02